Theta_e
308 310 311 312 312 312 315 313 315 318 320 320 322 322 322 322 323 324 325 327 326 325 325 325 325 323 309 297 298 308 325 325 321 312 308 311 303 300 296 298 299 296 297 297 299 298 298
308 308 309 311 311 311 313 314 314 316 320 319 320 320 321 321 322 324 324 326 325 325 325 325 323 321 301 293 307 313 317 318 315 309 305 310 309 304 300 298 297 298 297 296 297 297 298
306 309 310 310 310 311 312 313 313 316 319 319 320 320 320 320 321 323 324 325 324 324 325 324 323 311 300 299 307 315 314 315 313 307 303 306 307 304 301 297 299 297 292 293 293 296 296
306 310 310 310 310 311 312 313 313 316 319 319 320 319 319 320 321 323 323 325 323 324 324 324 322 305 297 308 309 312 311 309 312 309 307 307 306 302 299 300 295 293 291 287 292 296 295
305 308 309 310 309 310 312 311 313 317 319 319 319 318 319 320 320 321 322 323 323 324 324 322 309 300 296 310 304 309 308 306 307 307 306 307 304 299 299 292 289 290 283 285 288 294 292
304 307 307 309 309 309 310 310 313 318 319 318 318 318 318 319 320 320 322 322 323 322 318 312 310 296 298 297 303 308 305 305 302 302 302 303 299 295 293 289 283 285 284 285 286 290 291
304 305 307 308 307 309 309 309 314 318 319 319 318 318 318 319 320 321 320 314 305 304 305 298 298 295 297 301 305 303 305 302 299 296 292 298 294 290 293 290 290 288 288 287 288 291 291
303 305 306 306 305 308 308 311 316 320 320 318 317 318 318 319 320 320 314 304 304 305 296 301 302 299 301 301 296 300 304 295 294 290 292 291 290 295 295 293 291 289 286 286 288 291 289
303 303 305 305 304 306 307 311 319 320 319 318 317 317 318 318 319 315 308 301 308 306 292 295 300 297 299 300 294 296 300 296 291 289 289 287 291 297 293 291 290 287 286 285 286 288 287
303 303 304 304 304 305 306 310 318 319 318 317 317 317 317 318 312 310 303 305 309 300 284 288 293 296 299 299 292 299 301 297 291 290 289 287 292 292 290 290 291 286 289 289 288 285 281
302 302 302 302 303 305 305 308 318 318 317 316 316 317 317 317 310 304 304 306 306 296 274 289 292 301 299 294 294 294 298 294 289 288 288 287 288 289 289 290 291 289 291 289 287 285 282
302 301 301 301 302 304 304 308 317 317 317 316 316 316 316 312 310 307 308 306 299 284 276 286 292 292 291 292 292 293 294 294 293 290 288 288 290 291 291 291 292 292 289 288 285 282 278
301 301 300 300 301 303 303 307 317 317 316 316 316 316 314 312 304 307 307 300 282 277 288 283 286 291 289 287 288 289 289 287 285 282 284 285 286 289 291 288 290 290 284 279 278 277 276
301 301 300 301 301 302 302 305 317 317 316 315 315 315 312 310 311 307 301 289 273 281 284 288 289 290 285 288 286 287 286 286 286 285 282 280 279 287 289 288 286 286 285 279 273 273 275
301 301 300 300 300 301 301 303 315 316 315 315 315 311 309 308 310 306 295 282 278 283 288 287 288 285 283 287 286 285 284 287 287 286 282 280 281 288 289 289 290 286 284 287 280 274 276
302 301 301 300 299 299 300 303 309 315 315 314 310 306 305 310 309 300 290 283 284 289 290 290 283 285 281 285 283 283 283 287 286 288 286 285 281 287 287 289 289 288 289 283 282 274 272
302 301 301 301 299 299 299 301 304 314 314 314 306 299 305 310 305 295 284 283 288 293 292 288 286 284 284 283 284 283 283 286 289 287 288 287 285 283 287 286 285 285 284 284 285 281 275
302 302 301 301 300 298 299 300 301 314 314 310 299 291 307 308 292 288 285 286 293 292 294 292 290 288 286 287 284 283 282 287 292 289 286 288 285 280 283 286 288 287 286 286 282 279 279
300 302 302 302 301 298 298 298 299 309 309 297 293 292 301 304 286 287 286 288 291 291 292 291 289 290 289 287 283 285 286 291 291 291 288 289 282 277 281 284 286 285 286 286 285 282 280
299 300 301 301 302 299 298 298 299 301 305 296 292 288 294 298 290 290 286 287 287 292 293 294 291 291 288 286 288 285 287 292 292 292 295 294 285 282 278 281 285 283 285 285 285 280 280
297 299 300 302 301 301 299 297 297 300 301 296 290 291 293 288 289 290 289 288 286 287 292 294 290 289 288 283 285 285 289 290 292 294 293 291 280 281 283 284 285 284 285 286 284 286 282
297 298 299 300 302 302 300 299 298 298 299 289 287 290 290 292 292 290 289 286 287 289 291 289 289 291 290 286 287 285 288 288 287 289 287 288 277 282 279 284 285 283 285 286 287 286 286
297 298 299 299 301 301 300 298 298 298 296 286 291 292 295 292 289 288 287 287 288 290 291 293 293 291 289 291 293 293 292 292 291 289 287 286 280 276 274 280 281 281 284 285 285 287 286
297 298 299 299 300 302 301 299 299 299 298 293 291 291 291 286 288 287 288 289 289 289 289 291 293 291 293 296 296 294 292 291 291 289 289 281 280 276 271 273 272 283 286 289 287 287 289
297 297 298 299 300 301 301 301 300 299 298 292 291 290 287 286 289 286 288 288 291 291 289 290 289 291 296 292 287 285 285 283 283 287 288 287 283 277 276 267 278 281 284 284 284 286 289
297 297 298 299 299 300 301 301 300 298 297 292 292 292 290 287 286 289 289 290 288 285 285 285 289 291 292 287 285 280 279 279 280 283 286 287 286 282 274 270 271 278 284 286 289 281 285
297 298 298 298 298 299 300 301 301 300 299 293 291 293 289 283 284 290 289 289 288 287 284 285 286 288 289 285 283 282 280 282 282 281 283 282 282 280 271 270 276 283 285 287 281 281 284
297 297 298 298 298 298 299 300 301 300 299 294 291 293 289 282 284 286 287 287 286 286 285 285 288 286 285 285 284 283 279 280 281 284 284 282 281 278 274 271 276 285 285 284 286 284 284
297 297 297 297 297 297 298 299 300 300 298 296 289 293 292 285 283 288 288 288 289 290 289 285 286 286 288 285 284 282 276 271 277 279 283 282 283 282 283 281 285 283 285 286 287 286 285
Wind_Speed
15 16 17 16 17 17 17 14 16 18 23 21 28 29 27 26 26 24 24 26 24 21 21 22 19 17 7 3 8 5 14 14 7 6 8 6 2 5 5 4 5 3 4 2 3 3 3
15 17 17 16 18 20 19 17 17 19 23 22 24 28 27 26 27 24 24 28 25 25 22 22 20 14 5 5 4 5 11 10 7 5 4 7 6 2 1 3 5 6 3 5 3 2 1
14 15 18 15 18 20 18 18 20 22 21 28 29 27 27 26 26 25 24 27 24 23 23 22 19 4 3 9 3 5 12 8 7 6 6 2 5 7 2 7 5 3 5 3 3 3 4
12 17 16 16 18 17 19 21 21 22 23 25 31 28 28 25 25 25 26 28 26 24 23 19 13 3 4 5 3 7 7 6 6 3 2 8 4 7 7 4 1 5 4 5 4 5 3
14 16 17 18 18 18 18 21 26 20 24 27 29 28 26 26 26 24 27 26 26 25 23 17 5 5 5 4 4 5 5 10 6 4 3 5 5 4 1 8 2 4 5 6 3 7 1
15 16 18 21 16 19 21 23 28 21 28 31 31 30 29 27 26 26 28 25 25 25 15 5 4 2 3 6 4 7 3 10 4 6 3 4 4 2 1 4 10 5 4 2 6 6 4
13 17 16 15 19 22 24 27 26 23 28 33 30 31 30 30 30 33 29 17 11 7 9 6 10 4 5 4 5 3 7 6 5 5 5 4 8 20 15 2 3 4 5 6 4 4 7
14 14 16 15 21 25 24 31 21 30 31 34 32 31 31 32 33 35 20 12 14 12 11 2 17 1 3 7 6 6 8 7 7 8 9 4 23 12 9 6 6 4 4 6 1 2 4
12 14 15 13 20 24 29 29 23 32 33 33 33 32 33 34 34 20 17 6 13 23 8 5 7 3 4 5 5 10 12 5 7 9 10 8 6 15 12 7 11 6 6 4 3 3 2
10 12 15 14 21 25 30 32 28 34 35 34 34 34 36 37 21 17 13 10 20 6 6 6 7 6 3 6 1 5 9 9 4 17 10 5 7 22 9 15 12 13 5 6 7 6 5
9 10 13 16 22 25 28 35 33 34 32 33 34 35 38 32 16 17 18 13 15 4 6 12 6 4 8 9 9 5 4 3 10 7 7 7 9 15 16 10 10 8 5 9 5 5 5
6 7 12 15 20 25 26 33 33 35 35 35 36 35 38 11 10 15 11 16 3 4 8 11 11 9 10 4 4 6 6 2 5 5 4 5 1 9 10 4 9 7 6 5 5 3 1
6 2 7 9 17 24 28 28 32 34 36 36 36 38 28 12 18 11 10 14 6 7 8 9 9 13 14 6 5 5 13 8 8 9 15 3 3 1 4 6 2 7 5 2 1 1 7
6 4 6 10 15 21 25 29 29 37 36 37 37 36 16 4 17 11 5 9 6 6 11 4 9 16 10 9 2 7 10 12 7 5 5 6 4 7 4 6 9 4 7 6 7 5 3
6 4 4 10 12 18 25 25 21 37 38 36 38 13 12 7 18 6 12 17 10 7 8 11 9 15 4 6 9 7 10 19 10 8 9 7 4 3 1 1 5 5 6 5 8 3 4
7 4 4 9 10 15 20 22 6 30 36 39 18 15 14 17 19 5 11 11 5 6 11 18 8 8 10 21 9 9 12 9 6 9 2 7 5 1 1 2 2 6 9 3 2 5 3
5 4 7 9 9 13 20 23 20 32 39 36 7 13 11 19 8 6 16 9 5 3 12 8 8 8 9 11 8 12 14 2 10 8 4 5 5 2 2 5 9 3 3 1 5 5 7
6 4 4 7 11 13 16 23 26 31 40 20 4 7 14 18 13 7 14 8 4 5 2 5 6 6 11 15 7 8 13 6 13 9 9 3 6 5 5 1 1 0 5 5 8 7 2
7 10 6 5 12 10 13 16 20 10 18 7 7 5 2 17 17 17 4 4 3 5 5 5 5 5 5 12 7 4 8 2 8 14 12 8 0 5 4 3 1 5 4 3 5 4 7
5 8 8 4 12 12 12 12 17 20 12 7 6 10 6 9 1 20 15 14 5 3 3 4 6 5 9 8 3 9 5 3 2 10 8 9 4 8 11 6 9 7 6 5 5 3 4
2 4 6 7 6 14 12 8 13 18 16 4 2 7 5 25 20 22 18 15 7 7 1 5 3 9 10 6 4 6 5 4 2 5 7 6 6 3 3 3 3 6 13 15 11 17 11
4 3 2 5 7 12 14 12 11 13 12 6 4 8 4 18 19 25 21 18 16 6 8 4 9 6 4 10 9 10 9 4 7 1 6 2 3 3 3 5 1 0 6 13 22 11 17
4 4 2 4 6 8 15 13 10 9 9 3 1 2 9 22 21 22 25 22 20 12 6 4 13 8 6 4 5 6 4 7 9 10 6 8 8 4 6 2 3 6 14 15 11 15 10
4 4 4 5 6 9 15 12 12 10 7 2 2 1 8 13 21 21 22 15 19 6 10 3 5 7 3 7 8 11 14 15 12 8 3 7 8 3 4 3 5 9 4 16 18 9 17
6 5 4 5 8 9 12 14 14 10 6 4 3 2 2 9 15 5 23 9 14 7 5 5 3 1 8 5 7 6 5 6 6 6 5 2 6 5 7 5 6 4 6 8 10 16 11
7 8 8 9 10 11 13 15 13 14 10 4 3 3 3 11 8 5 16 19 13 7 4 2 3 4 4 4 4 5 5 5 3 2 4 3 5 5 3 7 12 1 5 4 7 13 7
11 9 9 11 10 10 11 13 12 13 12 5 2 5 3 7 3 4 12 16 6 5 6 4 5 3 2 4 4 3 3 1 7 9 6 3 2 8 3 5 9 8 2 1 9 8 2
12 13 12 12 12 11 11 12 11 12 8 4 1 6 3 5 3 5 4 5 4 4 10 7 6 2 3 5 4 4 3 6 4 5 8 11 10 6 3 2 14 7 4 10 5 2 3
15 14 13 12 11 11 12 11 9 10 10 4 3 2 4 8 3 3 7 5 5 2 8 1 2 6 5 4 3 4 3 2 6 6 2 5 6 7 11 8 4 5 1 1 2 5 3
Wind_Direction
286 285 279 284 288 273 264 288 285 272 217 219 202 186 181 180 171 180 179 158 156 156 157 156 152 143 133 143 246 248 177 179 150 151 180 167 122 137 163 198 134 206 172 89 293 3 133
287 285 276 279 280 271 262 272 297 266 222 215 217 183 179 177 172 173 176 161 160 148 146 145 148 147 121 172 230 189 160 131 159 137 163 168 176 34 130 222 161 196 194 127 285 279 107
285 281 275 279 285 278 247 267 272 275 224 206 190 182 175 176 170 168 174 159 156 150 143 143 154 155 82 215 341 160 142 149 161 158 141 168 167 114 57 314 243 149 126 52 217 216 234
290 292 285 285 285 280 260 261 278 268 219 203 176 179 171 169 162 166 168 157 156 144 146 145 148 70 212 256 114 102 112 120 160 190 179 146 120 162 177 221 117 140 99 149 226 170 265
295 295 292 294 282 286 284 276 287 246 204 192 176 175 165 162 159 165 155 152 143 139 136 138 90 123 245 68 145 173 135 166 140 193 199 134 117 163 166 141 92 221 188 171 189 179 56
299 288 295 301 307 299 291 286 282 231 193 186 171 167 164 156 152 149 134 135 134 124 123 117 115 129 238 196 159 150 162 130 135 135 76 81 74 25 223 156 196 180 142 170 172 200 142
301 290 294 309 317 306 301 296 259 224 187 170 169 162 161 148 151 141 129 122 130 121 174 175 166 209 145 140 90 143 151 118 110 133 149 163 172 205 210 102 230 148 169 195 224 178 140
307 302 301 329 317 309 311 303 230 191 173 166 169 160 154 153 154 147 146 161 152 117 128 309 180 153 163 147 114 153 134 145 157 164 130 146 213 183 222 221 247 230 205 216 212 110 135
305 310 308 329 316 319 327 316 201 172 164 164 161 159 153 155 150 150 163 128 133 132 131 200 175 183 163 99 145 178 148 138 144 160 176 183 175 197 208 212 217 232 193 225 212 116 72
308 333 317 328 331 334 326 324 187 167 161 167 159 159 153 145 149 156 160 152 163 140 98 174 172 236 130 117 183 175 177 148 164 188 155 216 211 180 174 212 195 230 191 207 156 138 193
317 348 331 342 338 335 328 325 175 162 159 164 157 156 153 154 135 171 163 153 171 64 135 164 172 163 153 151 139 220 184 116 162 170 134 211 162 186 189 196 179 225 147 174 157 135 120
299 356 352 346 343 339 331 319 170 160 159 161 156 154 148 131 136 159 132 144 103 125 207 177 153 159 137 162 145 130 150 103 159 133 65 184 237 169 179 145 173 136 98 59 62 98 215
254 98 1 327 2 338 332 323 168 160 159 162 158 153 154 152 157 152 135 144 117 185 157 174 164 163 157 146 123 153 177 181 168 138 177 135 190 222 133 104 84 156 146 125 75 245 210
246 151 36 12 8 343 332 339 177 164 163 162 154 151 140 144 156 145 109 147 134 204 173 143 133 139 158 133 93 162 137 199 246 154 127 148 205 177 167 180 168 188 159 156 172 184 224
249 132 61 47 21 347 342 331 197 169 163 160 147 144 155 168 154 127 165 187 192 171 148 124 90 142 128 168 130 149 195 195 191 196 149 146 197 337 83 68 157 183 205 145 98 26 72
251 161 128 61 36 6 339 329 293 168 159 156 152 149 165 162 147 109 183 187 166 178 123 138 140 161 167 174 147 174 171 191 198 185 167 188 126 342 322 198 98 171 156 127 354 132 243
329 199 155 101 51 25 347 358 337 177 160 150 134 147 153 151 110 155 195 185 166 155 137 141 148 145 162 166 148 173 186 212 177 187 138 125 103 264 144 213 168 144 193 122 115 146 167
7 38 177 121 68 54 360 4 348 169 156 140 132 134 161 153 161 174 193 170 140 151 139 126 113 111 161 160 133 166 182 190 183 148 153 130 116 146 197 238 294 58 239 164 181 208 200
5 5 43 139 98 75 40 11 7 90 138 103 118 118 150 168 176 182 168 152 93 145 155 156 129 142 155 161 131 161 175 154 161 173 159 175 165 98 36 1 158 196 209 173 108 73 196
1 358 7 85 123 89 86 23 13 355 110 95 132 131 142 180 173 170 165 180 125 9 125 118 119 106 112 157 69 170 131 153 162 190 141 110 158 165 190 193 136 188 188 188 135 156 171
303 342 354 28 121 107 85 61 22 354 19 85 18 150 174 174 190 179 178 170 141 150 198 162 82 157 140 127 103 142 129 123 55 136 134 146 198 132 48 356 116 167 183 185 197 214 193
226 259 357 27 21 122 91 78 41 353 14 76 119 155 133 163 164 171 179 199 170 144 145 181 134 139 137 151 178 174 131 159 169 136 140 120 240 109 11 346 70 321 198 187 220 217 240
210 223 161 71 25 100 106 82 61 16 29 77 349 358 151 159 168 177 192 182 173 134 9 137 131 107 83 118 95 94 72 110 146 149 141 136 128 112 234 334 69 305 205 209 216 217 210
193 175 169 107 68 59 108 102 77 73 48 68 14 353 136 164 175 180 174 167 159 172 123 26 68 97 150 144 97 56 54 59 55 42 86 132 109 94 163 44 200 262 176 205 207 212 213
172 170 154 136 91 63 119 86 87 83 72 57 343 13 86 146 158 119 158 144 119 93 84 104 48 353 146 77 74 70 11 37 11 30 14 48 126 117 145 200 293 245 212 152 175 246 209
181 145 129 113 85 72 72 92 87 94 82 67 17 308 74 119 186 110 148 159 149 119 88 78 0 16 76 83 88 132 164 158 209 37 357 49 68 117 128 161 218 218 192 145 109 266 224
161 134 130 119 99 86 80 89 80 78 91 85 359 354 66 94 15 140 162 158 113 116 96 122 131 32 349 88 74 106 172 232 165 173 161 121 65 199 168 223 284 250 222 143 151 244 132
164 131 127 116 105 92 90 83 85 66 69 85 40 1 70 84 54 34 46 119 108 143 153 160 108 29 54 131 144 154 148 200 160 164 178 167 158 198 110 107 252 171 74 168 206 51 137
139 130 122 122 104 93 86 85 87 76 51 75 73 343 29 73 81 39 83 50 24 56 121 72 78 121 146 113 159 124 159 126 160 192 270 199 187 179 181 205 213 201 178 92 119 134 158